Location: Baumgartsau
(48.4586°N, 14.0864°E)
Time: 13:26:41
(UTC+00:00)

BREEZE M DEB (TANK) - Pass Details

Date: 08 August 2020
Orbit: 304 x 11869 km, 49.5° (Epoch: 20 September)

Event Time Altitude Azimuth Distance (km) Brightness Sun altitude
Exits shadow 01:14:48 18° 197° (SSW) 9,693 8.0 -19.7°
Maximum altitude 01:37:25 42° 145° (SE) 3,860 6.4 -17.6°
Drops below altitude 10° 01:46:39 10° 78° (ENE) 3,618 7.2 -16.6°
Sets 01:48:40 0° 70° (ENE) 4,084 7.8 -16.4°
